Terminal Aerodrome Forecast
Issued by NWS

Current Version | Previous Version | Text Only | Print | Product List | Glossary On
Versions: 1 2 3 4 5 6 7 8 9 10 11 12 13 14 15 16 17
000
FTUS41 KPHI 301600 AAA
TAFMIV
TAF AMD
KMIV 301628Z 3016/3112 32016G28KT P6SM BKN035
     FM302200 31021G38KT P6SM SCT030
     FM310800 31016G29KT P6SM SKC=

USA.gov is the U.S. government's official web portal to all federal, state and local government web resources and services.